Location: Wald
(31.7579°N, 86.6655°W)
Time: 11:20:55
(UTC+00:00)

Terra - Pass Details

Date: 14 July 2020
Orbit: 701 x 703 km, 98.2° (Epoch: 09 August)

Event Time Altitude Azimuth Distance (km) Brightness Sun altitude
Exits shadow 03:56:52 50° 350° (N) 889 2.5 -29.9°
Drops below altitude 10° 04:00:24 10° 348° (NNW) 2,173 5.2 -30.3°
Sets 04:02:40 0° 349° (NNW) 3,095 6.2 -30.5°
